LVS114 SADF-SADF

Flight info

Callsign LVS114
Flight time N/A
Altitude 1000
Route LOCAL
Aircraft ECHO/L-SFG/C

Departure

Time 2026-04-15 21:14
Airport San Fernando Airport (SADF)

Arrival

Time N/A
Airport San Fernando Airport (SADF)
Time Latitude Longitude Altitude Speed Heading
2026-04-15 21:04 -34.45847 -58.59049 21 ft 0 kts 340°
2026-04-15 21:10 -34.45836 -58.59060 21 ft 6 kts 320°
2026-04-15 21:10 -34.45812 -58.59080 21 ft 0 kts 314°
2026-04-15 21:11 -34.45810 -58.59094 21 ft 4 kts 251°
2026-04-15 21:11 -34.45838 -58.59155 21 ft 13 kts 244°
2026-04-15 21:11 -34.45901 -58.59303 21 ft 25 kts 243°
2026-04-15 21:11 -34.45987 -58.59504 21 ft 19 kts 244°
2026-04-15 21:12 -34.46032 -58.59631 21 ft 12 kts 276°
2026-04-15 21:12 -34.45985 -58.59689 21 ft 10 kts 330°
2026-04-15 21:12 -34.45967 -58.59690 21 ft 0 kts 45°
2026-04-15 21:13 -34.45913 -58.59627 21 ft 31 kts 44°
2026-04-15 21:13 -34.45646 -58.59321 27 ft 71 kts 46°
2026-04-15 21:13 -34.45261 -58.58851 106 ft 83 kts 46°
2026-04-15 21:13 -34.44798 -58.58332 162 ft 94 kts 45°
2026-04-15 21:14 -34.44300 -58.57822 280 ft 95 kts 43°
2026-04-15 21:14 -34.43793 -58.57338 397 ft 87 kts 43°
2026-04-15 21:14 -34.43315 -58.56876 536 ft 90 kts 44°
2026-04-15 21:14 -34.42822 -58.56446 655 ft 83 kts 42°
2026-04-15 21:15 -34.42331 -58.56067 786 ft 84 kts 41°
2026-04-15 21:15 -34.41849 -58.55693 929 ft 82 kts 45°
2026-04-15 21:15 -34.41274 -58.55471 1003 ft 94 kts 21°
2026-04-15 21:15 -34.40559 -58.55516 1013 ft 111 kts 354°
2026-04-15 21:16 -34.39827 -58.55906 1010 ft 118 kts 331°
2026-04-15 21:16 -34.39101 -58.56359 1013 ft 117 kts 335°
2026-04-15 21:16 -34.38377 -58.56801 1011 ft 117 kts 334°
2026-04-15 21:16 -34.37616 -58.56959 992 ft 109 kts 14°
2026-04-15 21:17 -34.36866 -58.56873 994 ft 108 kts
2026-04-15 21:17 -34.36118 -58.56824 994 ft 107 kts 10°
2026-04-15 21:17 -34.35366 -58.56787 993 ft 108 kts 10°
2026-04-15 21:17 -34.34604 -58.56767 1001 ft 111 kts
2026-04-15 21:18 -34.33825 -58.56740 1015 ft 114 kts 12°
2026-04-15 21:18 -34.33023 -58.56669 1011 ft 115 kts 14°
2026-04-15 21:18 -34.32229 -58.56694 996 ft 119 kts 346°
2026-04-15 21:18 -34.31637 -58.57355 992 ft 117 kts 290°
2026-04-15 21:19 -34.31491 -58.58305 992 ft 116 kts 269°
2026-04-15 21:19 -34.31380 -58.59266 995 ft 112 kts 269°
2026-04-15 21:19 -34.31619 -58.60017 987 ft 87 kts 203°
2026-04-15 21:19 -34.32106 -58.59963 994 ft 71 kts 133°
2026-04-15 21:20 -34.32391 -58.59480 992 ft 71 kts 133°
2026-04-15 21:20 -34.32709 -58.59013 1001 ft 73 kts 130°
2026-04-15 21:20 -34.33033 -58.58533 1010 ft 76 kts 130°
2026-04-15 21:20 -34.33385 -58.58036 1040 ft 77 kts 133°
2026-04-15 21:21 -34.33762 -58.57536 1060 ft 85 kts 132°
2026-04-15 21:21 -34.34176 -58.56995 1065 ft 91 kts 132°
2026-04-15 21:21 -34.34624 -58.56445 1072 ft 93 kts 141°
2026-04-15 21:21 -34.35139 -58.55965 1081 ft 94 kts 141°
2026-04-15 21:22 -34.35657 -58.55470 1080 ft 95 kts 142°
2026-04-15 21:22 -34.36182 -58.54973 1079 ft 95 kts 144°
2026-04-15 21:22 -34.36784 -58.54631 1078 ft 96 kts 155°
2026-04-15 21:22 -34.37390 -58.54301 1077 ft 95 kts 158°
2026-04-15 21:23 -34.38033 -58.54089 1078 ft 96 kts 166°
2026-04-15 21:23 -34.38681 -58.53886 1080 ft 96 kts 165°
2026-04-15 21:23 -34.39321 -58.53689 1078 ft 96 kts 165°
2026-04-15 21:23 -34.39868 -58.53256 1061 ft 96 kts 116°
2026-04-15 21:24 -34.39799 -58.52502 1064 ft 95 kts 60°
2026-04-15 21:24 -34.39505 -58.51777 1066 ft 95 kts 65°
2026-04-15 21:24 -34.39230 -58.51059 1070 ft 95 kts 65°
2026-04-15 21:24 -34.38950 -58.50326 1072 ft 96 kts 65°
2026-04-15 21:25 -34.38766 -58.49844 1073 ft 96 kts 65°
2026-04-15 21:25 -34.38393 -58.48867 1075 ft 96 kts 65°
2026-04-15 21:25 -34.38204 -58.48384 1075 ft 95 kts 62°
2026-04-15 21:25 -34.37668 -58.47978 1065 ft 95 kts
2026-04-15 21:26 -34.37012 -58.47934 1066 ft 95 kts
2026-04-15 21:26 -34.36138 -58.47839 1069 ft 95 kts
2026-04-15 21:26 -34.35477 -58.47768 1071 ft 96 kts
2026-04-15 21:26 -34.34814 -58.47697 1072 ft 96 kts
2026-04-15 21:27 -34.34366 -58.47649 1073 ft 96 kts
2026-04-15 21:27 -34.33710 -58.47579 1074 ft 96 kts
2026-04-15 21:27 -34.33048 -58.47580 1073 ft 95 kts 350°
2026-04-15 21:27 -34.32392 -58.47701 1073 ft 96 kts 352°
2026-04-15 21:28 -34.31731 -58.47814 1073 ft 96 kts 352°
2026-04-15 21:28 -34.31072 -58.47925 1073 ft 96 kts 352°
2026-04-15 21:28 -34.30410 -58.48038 1074 ft 96 kts 352°
2026-04-15 21:28 -34.29754 -58.48173 1074 ft 96 kts 344°
2026-04-15 21:29 -34.29123 -58.48401 1074 ft 96 kts 344°
2026-04-15 21:29 -34.28486 -58.48641 1074 ft 96 kts 340°
2026-04-15 21:29 -34.27856 -58.48906 1074 ft 96 kts 341°
2026-04-15 21:29 -34.27226 -58.49171 1074 ft 96 kts 340°
2026-04-15 21:30 -34.26594 -58.49434 1074 ft 96 kts 340°
2026-04-15 21:30 -34.25966 -58.49698 1074 ft 96 kts 340°
2026-04-15 21:30 -34.25381 -58.50064 1066 ft 96 kts 313°
2026-04-15 21:30 -34.25178 -58.50814 1062 ft 97 kts 267°
2026-04-15 21:31 -34.26050 -58.51857 1066 ft 95 kts 191°
2026-04-15 21:31 -34.26687 -58.52062 1065 ft 95 kts 196°
2026-04-15 21:32 -34.27953 -58.52512 1066 ft 95 kts 196°
2026-04-15 21:32 -34.28589 -58.52734 1066 ft 95 kts 193°
2026-04-15 21:32 -34.29234 -58.52902 1067 ft 95 kts 189°
2026-04-15 21:32 -34.29878 -58.53015 1068 ft 95 kts 185°